Time,TemperatureF,DewpointF,PressureIn,WindDirection,WindDirectionDegrees,WindSpeedMPH,WindSpeedGustMPH,Humidity,HourlyPrecipIn,Conditions,Clouds,dailyrainin,SolarRadiationWatts/m^2,SoftwareType,DateUTC
2013-08-10 00:01:00,72.7,72.1,29.82,SW,214,0.0,0.0,98,0.00,,,0.00,0,Wunderground v.1.15,2013-08-10 04:01:00,
2013-08-10 00:02:00,72.7,72.1,29.82,SW,214,0.0,0.0,98,0.00,,,0.00,0,Wunderground v.1.15,2013-08-10 04:02:00,
2013-08-10 00:04:00,72.6,72.0,29.82,SSE,156,0.0,0.0,98,0.00,,,0.00,0,Wunderground v.1.15,2013-08-10 04:04:00,
2013-08-10 00:05:00,72.6,72.0,29.82,SSE,156,0.0,0.0,98,0.00,,,0.00,0,Wunderground v.1.15,2013-08-10 04:05:00,
2013-08-10 00:06:00,72.6,72.0,29.82,SSE,157,0.0,0.0,98,0.00,,,0.00,0,Wunderground v.1.15,2013-08-10 04:06:00,
2013-08-10 00:11:00,72.5,71.9,29.82,SSE,165,0.0,0.0,98,0.00,,,0.00,0,Wunderground v.1.15,2013-08-10 04:11:00,
2013-08-10 00:17:00,72.4,71.8,29.81,SSE,165,0.0,0.0,98,0.00,,,0.00,0,Wunderground v.1.15,2013-08-10 04:17:00,
2013-08-10 00:22:00,72.4,71.8,29.81,SSE,165,0.0,0.0,98,0.00,,,0.00,0,Wunderground v.1.15,2013-08-10 04:22:00,
2013-08-10 00:28:00,72.3,71.7,29.81,SSE,165,0.0,0.0,98,0.00,,,0.00,0,Wunderground v.1.15,2013-08-10 04:28:00,
2013-08-10 00:33:00,72.3,71.7,29.81,SSW,204,0.0,1.0,98,0.00,,,0.00,0,Wunderground v.1.15,2013-08-10 04:33:00,
2013-08-10 00:39:00,72.2,71.6,29.81,SSW,199,0.0,1.0,98,0.00,,,0.00,0,Wunderground v.1.15,2013-08-10 04:39:00,
2013-08-10 00:44:00,72.1,71.5,29.81,SSW,199,0.0,0.0,98,0.00,,,0.00,0,Wunderground v.1.15,2013-08-10 04:44:00,
2013-08-10 00:50:00,72.1,71.5,29.81,SSW,199,0.0,0.0,98,0.00,,,0.00,0,Wunderground v.1.15,2013-08-10 04:50:00,
2013-08-10 00:55:00,72.1,71.5,29.81,SSW,199,0.0,0.0,98,0.00,,,0.00,0,Wunderground v.1.15,2013-08-10 04:55:00,
2013-08-10 01:00:00,72.1,71.5,29.81,SSW,199,0.0,0.0,98,0.00,,,0.00,0,Wunderground v.1.15,2013-08-10 05:00:00,
2013-08-10 01:06:00,72.0,71.4,29.81,West,275,0.0,0.0,98,0.00,,,0.00,0,Wunderground v.1.15,2013-08-10 05:06:00,
2013-08-10 01:12:00,71.9,71.3,29.81,SSW,198,0.0,0.0,98,0.00,,,0.00,0,Wunderground v.1.15,2013-08-10 05:12:00,
2013-08-10 01:18:00,71.9,71.3,29.81,SW,219,0.0,0.0,98,0.00,,,0.00,0,Wunderground v.1.15,2013-08-10 05:18:00,
2013-08-10 01:24:00,71.9,71.3,29.80,South,171,0.0,0.0,98,0.00,,,0.00,0,Wunderground v.1.15,2013-08-10 05:24:00,
2013-08-10 01:30:00,71.9,71.3,29.81,West,267,0.0,0.0,98,0.00,,,0.00,0,Wunderground v.1.15,2013-08-10 05:30:00,
2013-08-10 01:35:00,71.9,71.3,29.81,South,175,0.0,0.0,98,0.00,,,0.00,0,Wunderground v.1.15,2013-08-10 05:35:00,
2013-08-10 01:41:00,72.0,71.4,29.81,NNW,336,0.0,0.0,98,0.00,,,0.00,0,Wunderground v.1.15,2013-08-10 05:41:00,
2013-08-10 01:46:00,72.1,71.5,29.81,NNW,336,0.0,0.0,98,0.00,,,0.00,0,Wunderground v.1.15,2013-08-10 05:46:00,
2013-08-10 01:51:00,72.1,71.5,29.81,NNW,336,0.0,0.0,98,0.00,,,0.00,0,Wunderground v.1.15,2013-08-10 05:51:00,
2013-08-10 01:56:00,72.1,71.5,29.81,North,355,0.0,0.0,98,0.00,,,0.00,0,Wunderground v.1.15,2013-08-10 05:56:00,
2013-08-10 02:02:00,72.2,71.6,29.81,WNW,302,0.0,0.0,98,0.00,,,0.00,0,Wunderground v.1.15,2013-08-10 06:02:00,
2013-08-10 02:08:00,72.2,71.6,29.81,NW,307,0.0,0.0,98,0.00,,,0.00,0,Wunderground v.1.15,2013-08-10 06:08:00,
2013-08-10 02:13:00,72.2,71.6,29.81,NW,307,0.0,0.0,98,0.00,,,0.00,0,Wunderground v.1.15,2013-08-10 06:13:00,
2013-08-10 02:19:00,72.3,71.7,29.81,NNW,344,0.0,0.0,98,0.00,,,0.00,0,Wunderground v.1.15,2013-08-10 06:19:00,
2013-08-10 02:24:00,72.3,71.7,29.81,North,355,0.0,0.0,98,0.00,,,0.00,0,Wunderground v.1.15,2013-08-10 06:24:00,
2013-08-10 02:29:00,72.4,71.8,29.82,North,5,0.0,0.0,98,0.00,,,0.00,0,Wunderground v.1.15,2013-08-10 06:29:00,
2013-08-10 02:35:00,72.4,71.8,29.81,ENE,73,0.0,0.0,98,0.00,,,0.00,0,Wunderground v.1.15,2013-08-10 06:35:00,
2013-08-10 02:40:00,72.4,71.8,29.82,SE,130,0.0,0.0,98,0.00,,,0.00,0,Wunderground v.1.15,2013-08-10 06:40:00,
2013-08-10 02:45:00,72.4,71.8,29.82,SE,130,0.0,0.0,98,0.00,,,0.00,0,Wunderground v.1.15,2013-08-10 06:45:00,
2013-08-10 02:50:00,72.5,71.9,29.82,SE,130,0.0,0.0,98,0.00,,,0.00,0,Wunderground v.1.15,2013-08-10 06:50:00,
2013-08-10 02:56:00,72.5,71.9,29.82,SE,130,0.0,0.0,98,0.00,,,0.00,0,Wunderground v.1.15,2013-08-10 06:56:00,
2013-08-10 03:02:00,72.5,71.9,29.82,SE,130,0.0,0.0,98,0.00,,,0.00,0,Wunderground v.1.15,2013-08-10 07:02:00,
2013-08-10 03:07:00,72.5,71.9,29.82,SE,130,0.0,0.0,98,0.00,,,0.00,0,Wunderground v.1.15,2013-08-10 07:07:00,
2013-08-10 03:13:00,72.4,71.8,29.82,SE,130,0.0,0.0,98,0.00,,,0.00,0,Wunderground v.1.15,2013-08-10 07:13:00,
2013-08-10 03:18:00,72.3,71.7,29.82,SE,130,0.0,0.0,98,0.00,,,0.00,0,Wunderground v.1.15,2013-08-10 07:18:00,
2013-08-10 03:24:00,72.2,71.6,29.82,SE,130,0.0,0.0,98,0.00,,,0.00,0,Wunderground v.1.15,2013-08-10 07:24:00,
2013-08-10 03:30:00,72.1,71.5,29.82,South,180,0.0,0.0,98,0.00,,,0.00,0,Wunderground v.1.15,2013-08-10 07:30:00,
2013-08-10 03:36:00,72.0,71.4,29.82,South,180,0.0,0.0,98,0.00,,,0.00,0,Wunderground v.1.15,2013-08-10 07:36:00,
2013-08-10 03:41:00,71.8,71.2,29.82,South,180,0.0,0.0,98,0.00,,,0.00,0,Wunderground v.1.15,2013-08-10 07:41:00,
2013-08-10 03:46:00,71.7,71.1,29.82,South,180,0.0,0.0,98,0.00,,,0.00,0,Wunderground v.1.15,2013-08-10 07:46:00,
2013-08-10 03:52:00,71.5,70.9,29.82,South,180,0.0,0.0,98,0.00,,,0.00,0,Wunderground v.1.15,2013-08-10 07:52:00,
2013-08-10 03:58:00,71.3,70.7,29.83,South,180,0.0,0.0,98,0.00,,,0.00,0,Wunderground v.1.15,2013-08-10 07:58:00,
2013-08-10 04:03:00,71.3,71.0,29.83,South,180,0.0,0.0,99,0.00,,,0.00,0,Wunderground v.1.15,2013-08-10 08:03:00,
2013-08-10 04:09:00,71.3,71.0,29.83,South,180,0.0,0.0,99,0.00,,,0.00,0,Wunderground v.1.15,2013-08-10 08:09:00,
2013-08-10 04:14:00,71.3,71.0,29.83,South,180,0.0,0.0,99,0.00,,,0.00,0,Wunderground v.1.15,2013-08-10 08:14:00,
2013-08-10 04:20:00,71.2,70.9,29.83,South,180,0.0,0.0,99,0.00,,,0.00,0,Wunderground v.1.15,2013-08-10 08:20:00,
2013-08-10 04:25:00,71.1,70.8,29.83,South,180,0.0,0.0,99,0.00,,,0.00,0,Wunderground v.1.15,2013-08-10 08:25:00,
2013-08-10 04:31:00,71.1,70.8,29.83,South,180,0.0,0.0,99,0.00,,,0.00,0,Wunderground v.1.15,2013-08-10 08:31:00,
2013-08-10 04:36:00,71.0,70.7,29.83,South,180,0.0,0.0,99,0.00,,,0.00,0,Wunderground v.1.15,2013-08-10 08:36:00,
2013-08-10 04:41:00,70.8,70.5,29.83,SW,214,0.0,0.0,99,0.00,,,0.00,0,Wunderground v.1.15,2013-08-10 08:41:00,
2013-08-10 04:47:00,70.9,70.6,29.83,SW,214,0.0,0.0,99,0.00,,,0.00,0,Wunderground v.1.15,2013-08-10 08:47:00,
2013-08-10 04:53:00,70.7,70.4,29.83,SW,214,0.0,0.0,99,0.00,,,0.00,0,Wunderground v.1.15,2013-08-10 08:53:00,
2013-08-10 04:59:00,70.6,70.3,29.84,SW,214,0.0,0.0,99,0.00,,,0.00,0,Wunderground v.1.15,2013-08-10 08:59:00,
2013-08-10 05:05:00,70.7,70.4,29.84,NW,317,0.0,1.0,99,0.00,,,0.00,0,Wunderground v.1.15,2013-08-10 09:05:00,
2013-08-10 05:10:00,70.6,70.3,29.84,West,281,0.0,0.0,99,0.00,,,0.00,0,Wunderground v.1.15,2013-08-10 09:10:00,
2013-08-10 05:16:00,70.3,70.0,29.84,West,281,0.0,0.0,99,0.00,,,0.00,0,Wunderground v.1.15,2013-08-10 09:16:00,
2013-08-10 05:17:00,70.3,70.0,29.84,NW,305,0.0,0.0,99,0.00,,,0.00,0,Wunderground v.1.15,2013-08-10 09:17:00,
2013-08-10 05:23:00,70.1,69.8,29.84,WNW,288,0.0,0.0,99,0.00,,,0.00,0,Wunderground v.1.15,2013-08-10 09:23:00,
2013-08-10 05:29:00,70.0,69.7,29.84,WNW,288,0.0,0.0,99,0.00,,,0.00,0,Wunderground v.1.15,2013-08-10 09:29:00,
2013-08-10 05:35:00,69.8,69.5,29.85,WNW,288,0.0,0.0,99,0.00,,,0.00,0,Wunderground v.1.15,2013-08-10 09:35:00,
2013-08-10 05:41:00,69.7,69.4,29.84,WNW,288,0.0,0.0,99,0.00,,,0.00,0,Wunderground v.1.15,2013-08-10 09:41:00,
2013-08-10 05:46:00,69.5,69.2,29.85,NW,320,0.0,0.0,99,0.00,,,0.00,0,Wunderground v.1.15,2013-08-10 09:46:00,
2013-08-10 05:51:00,69.4,69.1,29.85,NW,320,0.0,0.0,99,0.00,,,0.00,0,Wunderground v.1.15,2013-08-10 09:51:00,
2013-08-10 05:56:00,69.3,69.0,29.85,North,11,0.0,1.0,99,0.00,,,0.00,0,Wunderground v.1.15,2013-08-10 09:56:00,
2013-08-10 06:02:00,69.2,68.9,29.85,NNE,15,0.0,0.0,99,0.00,,,0.00,5,Wunderground v.1.15,2013-08-10 10:02:00,
2013-08-10 06:08:00,69.1,68.5,29.86,WNW,298,0.0,2.0,98,0.00,,,0.00,9,Wunderground v.1.15,2013-08-10 10:08:00,
2013-08-10 06:14:00,69.1,68.5,29.86,WNW,285,0.0,1.0,98,0.00,,,0.00,9,Wunderground v.1.15,2013-08-10 10:14:00,
2013-08-10 06:20:00,68.9,68.3,29.86,NNW,331,0.0,0.0,98,0.00,,,0.00,11,Wunderground v.1.15,2013-08-10 10:20:00,
2013-08-10 06:25:00,68.8,68.2,29.86,WSW,245,0.0,4.0,98,0.00,,,0.00,12,Wunderground v.1.15,2013-08-10 10:25:00,
2013-08-10 06:30:00,68.9,68.3,29.86,WNW,302,0.0,0.0,98,0.00,,,0.00,14,Wunderground v.1.15,2013-08-10 10:30:00,
2013-08-10 06:36:00,68.7,67.8,29.87,West,267,0.0,1.0,97,0.00,,,0.00,16,Wunderground v.1.15,2013-08-10 10:36:00,
2013-08-10 06:42:00,68.7,67.8,29.87,NNW,328,0.0,1.0,97,0.00,,,0.00,18,Wunderground v.1.15,2013-08-10 10:42:00,
2013-08-10 06:47:00,68.8,67.6,29.87,NE,53,0.0,1.0,96,0.00,,,0.00,23,Wunderground v.1.15,2013-08-10 10:47:00,
2013-08-10 06:52:00,68.8,67.6,29.87,WNW,290,0.0,2.0,96,0.00,,,0.00,33,Wunderground v.1.15,2013-08-10 10:52:00,
2013-08-10 06:58:00,68.7,67.2,29.87,West,268,1.0,2.0,95,0.00,,,0.00,44,Wunderground v.1.15,2013-08-10 10:58:00,
2013-08-10 07:04:00,68.9,67.4,29.87,NNE,14,1.0,3.0,95,0.00,,,0.00,53,Wunderground v.1.15,2013-08-10 11:04:00,
2013-08-10 07:09:00,69.1,67.6,29.87,NNE,30,1.0,3.0,95,0.00,,,0.00,56,Wunderground v.1.15,2013-08-10 11:09:00,
2013-08-10 07:14:00,69.3,67.5,29.87,ENE,69,0.0,1.0,94,0.00,,,0.00,58,Wunderground v.1.15,2013-08-10 11:14:00,
2013-08-10 07:20:00,69.5,67.7,29.87,WNW,296,0.0,0.0,94,0.00,,,0.00,47,Wunderground v.1.15,2013-08-10 11:20:00,
2013-08-10 07:26:00,69.6,67.5,29.88,NW,323,0.0,4.0,93,0.00,,,0.00,47,Wunderground v.1.15,2013-08-10 11:26:00,
2013-08-10 07:32:00,69.4,67.3,29.88,West,267,0.0,1.0,93,0.00,,,0.00,42,Wunderground v.1.15,2013-08-10 11:32:00,
2013-08-10 07:37:00,69.2,66.8,29.88,North,355,1.0,5.0,92,0.00,,,0.00,44,Wunderground v.1.15,2013-08-10 11:37:00,
2013-08-10 07:44:00,69.3,66.9,29.88,WNW,302,0.0,0.0,92,0.00,,,0.00,53,Wunderground v.1.15,2013-08-10 11:44:00,
2013-08-10 07:49:00,69.5,67.1,29.88,NE,38,0.0,1.0,92,0.00,,,0.00,46,Wunderground v.1.15,2013-08-10 11:49:00,
2013-08-10 07:54:00,69.5,66.8,29.88,WSW,242,0.0,1.0,91,0.00,,,0.00,51,Wunderground v.1.15,2013-08-10 11:54:00,
2013-08-10 07:59:00,69.5,66.4,29.89,NNW,348,0.0,1.0,90,0.00,,,0.00,86,Wunderground v.1.15,2013-08-10 11:59:00,
2013-08-10 08:05:00,69.8,66.7,29.89,WNW,300,0.0,1.0,90,0.00,,,0.00,65,Wunderground v.1.15,2013-08-10 12:05:00,
2013-08-10 08:10:00,70.2,67.1,29.89,NW,304,0.0,0.0,90,0.00,,,0.00,62,Wunderground v.1.15,2013-08-10 12:10:00,
2013-08-10 08:16:00,70.6,66.9,29.89,NW,321,1.0,3.0,88,0.00,,,0.00,72,Wunderground v.1.15,2013-08-10 12:16:00,
2013-08-10 08:22:00,70.5,66.8,29.89,NNE,20,1.0,3.0,88,0.00,,,0.00,171,Wunderground v.1.15,2013-08-10 12:22:00,
2013-08-10 08:27:00,71.1,67.0,29.89,NW,304,1.0,3.0,87,0.00,,,0.00,114,Wunderground v.1.15,2013-08-10 12:27:00,
2013-08-10 08:33:00,71.3,67.2,29.89,NW,317,1.0,1.0,87,0.00,,,0.00,67,Wunderground v.1.15,2013-08-10 12:33:00,
2013-08-10 08:38:00,71.6,66.5,29.89,WNW,294,1.0,6.0,84,0.00,,,0.00,79,Wunderground v.1.15,2013-08-10 12:38:00,
2013-08-10 08:43:00,72.1,67.0,29.89,SW,219,1.0,3.0,84,0.00,,,0.00,118,Wunderground v.1.15,2013-08-10 12:43:00,
2013-08-10 08:48:00,72.5,67.0,29.89,WNW,288,1.0,3.0,83,0.00,,,0.00,431,Wunderground v.1.15,2013-08-10 12:48:00,
2013-08-10 08:53:00,72.9,67.4,29.89,East,98,1.0,1.0,83,0.00,,,0.00,494,Wunderground v.1.15,2013-08-10 12:53:00,
2013-08-10 08:58:00,73.0,66.8,29.89,NNW,337,1.0,5.0,81,0.00,,,0.00,490,Wunderground v.1.15,2013-08-10 12:58:00,
2013-08-10 09:04:00,73.1,66.6,29.89,NW,326,1.0,1.0,80,0.00,,,0.00,70,Wunderground v.1.15,2013-08-10 13:04:00,
2013-08-10 09:09:00,73.0,67.2,29.90,West,275,1.0,5.0,82,0.00,,,0.00,93,Wunderground v.1.15,2013-08-10 13:09:00,
2013-08-10 09:14:00,73.1,66.2,29.90,North,355,1.0,4.0,79,0.00,,,0.00,111,Wunderground v.1.15,2013-08-10 13:14:00,
2013-08-10 09:20:00,73.4,66.9,29.90,SW,232,1.0,3.0,80,0.00,,,0.00,90,Wunderground v.1.15,2013-08-10 13:20:00,
2013-08-10 09:25:00,73.6,66.7,29.90,NE,37,1.0,3.0,79,0.00,,,0.00,179,Wunderground v.1.15,2013-08-10 13:25:00,
2013-08-10 09:30:00,74.0,67.1,29.90,ENE,65,1.0,1.0,79,0.00,,,0.00,116,Wunderground v.1.15,2013-08-10 13:30:00,
2013-08-10 09:35:00,74.3,67.4,29.90,NW,319,1.0,2.0,79,0.00,,,0.00,120,Wunderground v.1.15,2013-08-10 13:35:00,
2013-08-10 09:41:00,73.9,67.0,29.90,WNW,297,0.0,0.0,79,0.00,,,0.00,125,Wunderground v.1.15,2013-08-10 13:41:00,
2013-08-10 09:47:00,73.5,67.7,29.90,North,5,0.0,0.0,82,0.00,,,0.00,97,Wunderground v.1.15,2013-08-10 13:47:00,
2013-08-10 09:53:00,73.6,66.7,29.90,NE,34,0.0,0.0,79,0.00,,,0.00,116,Wunderground v.1.15,2013-08-10 13:53:00,
2013-08-10 09:58:00,74.4,66.3,29.90,ENE,65,0.0,1.0,76,0.00,,,0.00,105,Wunderground v.1.15,2013-08-10 13:58:00,
2013-08-10 10:03:00,74.8,66.7,29.90,NNW,335,0.0,0.0,76,0.00,,,0.00,130,Wunderground v.1.15,2013-08-10 14:03:00,
2013-08-10 10:08:00,74.8,65.6,29.90,West,276,0.0,3.0,73,0.00,,,0.00,109,Wunderground v.1.15,2013-08-10 14:08:00,
2013-08-10 10:13:00,74.8,64.4,29.91,NW,314,1.0,3.0,70,0.00,,,0.00,95,Wunderground v.1.15,2013-08-10 14:13:00,
2013-08-10 10:18:00,75.0,66.5,29.91,SW,219,1.0,3.0,75,0.00,,,0.00,111,Wunderground v.1.15,2013-08-10 14:18:00,
2013-08-10 10:24:00,75.8,65.3,29.91,NNW,331,0.0,2.0,70,0.00,,,0.00,130,Wunderground v.1.15,2013-08-10 14:24:00,
2013-08-10 10:30:00,76.5,63.9,29.91,WNW,294,1.0,2.0,65,0.00,,,0.00,800,Wunderground v.1.15,2013-08-10 14:30:00,
2013-08-10 10:35:00,76.8,63.7,29.90,NW,326,2.0,3.0,64,0.00,,,0.00,795,Wunderground v.1.15,2013-08-10 14:35:00,
2013-08-10 10:41:00,78.5,64.9,29.90,NW,306,1.0,1.0,63,0.00,,,0.00,828,Wunderground v.1.15,2013-08-10 14:41:00,
2013-08-10 10:47:00,79.4,65.2,29.90,WNW,299,1.0,3.0,62,0.00,,,0.00,837,Wunderground v.1.15,2013-08-10 14:47:00,
2013-08-10 10:53:00,79.5,63.4,29.90,NNW,329,1.0,3.0,58,0.00,,,0.00,875,Wunderground v.1.15,2013-08-10 14:53:00,
2013-08-10 10:59:00,79.9,62.3,29.90,NW,309,1.0,3.0,55,0.00,,,0.00,893,Wunderground v.1.15,2013-08-10 14:59:00,
2013-08-10 11:04:00,80.3,63.2,29.90,WNW,292,1.0,1.0,56,0.00,,,0.00,831,Wunderground v.1.15,2013-08-10 15:04:00,
2013-08-10 11:09:00,79.4,62.3,29.90,NNE,15,2.0,4.0,56,0.00,,,0.00,902,Wunderground v.1.15,2013-08-10 15:09:00,
2013-08-10 11:15:00,80.7,62.0,29.90,West,273,2.0,2.0,53,0.00,,,0.00,886,Wunderground v.1.15,2013-08-10 15:15:00,
2013-08-10 11:20:00,80.9,64.2,29.90,NW,321,1.0,1.0,57,0.00,,,0.00,893,Wunderground v.1.15,2013-08-10 15:20:00,
2013-08-10 11:25:00,81.3,63.6,29.90,North,351,1.0,4.0,55,0.00,,,0.00,751,Wunderground v.1.15,2013-08-10 15:25:00,
2013-08-10 11:31:00,80.5,64.4,29.90,NNE,15,1.0,1.0,58,0.00,,,0.00,895,Wunderground v.1.15,2013-08-10 15:31:00,
2013-08-10 11:37:00,81.8,64.6,29.90,NW,311,0.0,1.0,56,0.00,,,0.00,898,Wunderground v.1.15,2013-08-10 15:37:00,
2013-08-10 11:43:00,81.3,61.4,29.90,West,269,1.0,4.0,51,0.00,,,0.00,905,Wunderground v.1.15,2013-08-10 15:43:00,
2013-08-10 11:49:00,82.1,64.3,29.90,NW,313,1.0,4.0,55,0.00,,,0.00,912,Wunderground v.1.15,2013-08-10 15:49:00,
2013-08-10 11:54:00,81.8,60.8,29.90,NW,309,1.0,2.0,49,0.00,,,0.00,937,Wunderground v.1.15,2013-08-10 15:54:00,
2013-08-10 12:00:00,81.4,61.5,29.90,West,266,1.0,1.0,51,0.00,,,0.00,918,Wunderground v.1.15,2013-08-10 16:00:00,
2013-08-10 12:05:00,81.8,61.3,29.90,WSW,255,1.0,5.0,50,0.00,,,0.00,884,Wunderground v.1.15,2013-08-10 16:05:00,
2013-08-10 12:11:00,82.2,63.4,29.90,West,262,1.0,1.0,53,0.00,,,0.00,128,Wunderground v.1.15,2013-08-10 16:11:00,
2013-08-10 12:17:00,81.4,61.0,29.90,NW,313,1.0,5.0,50,0.00,,,0.00,309,Wunderground v.1.15,2013-08-10 16:17:00,
2013-08-10 12:23:00,81.3,62.0,29.90,NE,47,1.0,3.0,52,0.00,,,0.00,77,Wunderground v.1.15,2013-08-10 16:23:00,
2013-08-10 12:28:00,81.1,61.8,29.90,West,268,1.0,4.0,52,0.00,,,0.00,70,Wunderground v.1.15,2013-08-10 16:28:00,
2013-08-10 12:33:00,80.9,61.6,29.90,SW,233,1.0,3.0,52,0.00,,,0.00,258,Wunderground v.1.15,2013-08-10 16:33:00,
2013-08-10 12:39:00,80.9,63.2,29.90,NW,309,1.0,3.0,55,0.00,,,0.00,149,Wunderground v.1.15,2013-08-10 16:39:00,
2013-08-10 12:45:00,81.2,61.9,29.90,WSW,248,1.0,2.0,52,0.00,,,0.00,223,Wunderground v.1.15,2013-08-10 16:45:00,
2013-08-10 12:51:00,81.2,62.4,29.90,NW,307,1.0,3.0,53,0.00,,,0.00,72,Wunderground v.1.15,2013-08-10 16:51:00,
2013-08-10 12:56:00,81.4,62.6,29.90,NW,317,1.0,3.0,53,0.00,,,0.00,91,Wunderground v.1.15,2013-08-10 16:56:00,
2013-08-10 13:01:00,81.4,63.7,29.90,WNW,298,1.0,1.0,55,0.00,,,0.00,86,Wunderground v.1.15,2013-08-10 17:01:00,
2013-08-10 13:07:00,82.2,63.4,29.90,South,184,1.0,1.0,53,0.00,,,0.00,86,Wunderground v.1.15,2013-08-10 17:07:00,
2013-08-10 13:14:00,81.6,62.8,29.90,WNW,285,1.0,4.0,53,0.00,,,0.00,72,Wunderground v.1.15,2013-08-10 17:14:00,
2013-08-10 13:19:00,81.5,63.8,29.90,WSW,246,1.0,4.0,55,0.00,,,0.00,79,Wunderground v.1.15,2013-08-10 17:19:00,
2013-08-10 13:24:00,81.6,62.8,29.90,SW,215,1.0,2.0,53,0.00,,,0.00,72,Wunderground v.1.15,2013-08-10 17:24:00,
2013-08-10 13:29:00,81.4,63.2,29.90,West,265,1.0,4.0,54,0.00,,,0.00,116,Wunderground v.1.15,2013-08-10 17:29:00,
2013-08-10 13:34:00,81.6,62.3,29.90,WNW,299,1.0,4.0,52,0.00,,,0.00,104,Wunderground v.1.15,2013-08-10 17:34:00,
2013-08-10 13:39:00,81.6,63.3,29.90,WNW,296,1.0,4.0,54,0.00,,,0.00,84,Wunderground v.1.15,2013-08-10 17:39:00,
2013-08-10 13:45:00,82.0,63.2,29.90,West,268,1.0,2.0,53,0.00,,,0.00,107,Wunderground v.1.15,2013-08-10 17:45:00,
2013-08-10 13:51:00,82.3,63.5,29.90,WSW,242,1.0,1.0,53,0.00,,,0.00,88,Wunderground v.1.15,2013-08-10 17:51:00,
2013-08-10 13:56:00,82.6,62.6,29.89,West,267,1.0,3.0,51,0.00,,,0.00,77,Wunderground v.1.15,2013-08-10 17:56:00,
2013-08-10 14:02:00,82.5,62.0,29.89,WNW,302,2.0,5.0,50,0.00,,,0.00,84,Wunderground v.1.15,2013-08-10 18:02:00,
2013-08-10 14:08:00,82.5,61.4,29.89,West,271,1.0,5.0,49,0.00,,,0.00,79,Wunderground v.1.15,2013-08-10 18:08:00,
2013-08-10 14:14:00,82.3,62.9,29.89,West,264,1.0,1.0,52,0.00,,,0.00,84,Wunderground v.1.15,2013-08-10 18:14:00,
2013-08-10 14:19:00,82.0,60.4,29.89,WNW,300,1.0,3.0,48,0.00,,,0.00,125,Wunderground v.1.15,2013-08-10 18:19:00,
2013-08-10 14:24:00,82.4,61.3,29.90,WNW,285,1.0,5.0,49,0.00,,,0.00,127,Wunderground v.1.15,2013-08-10 18:24:00,
2013-08-10 14:30:00,82.1,61.6,29.90,West,281,1.0,3.0,50,0.00,,,0.00,132,Wunderground v.1.15,2013-08-10 18:30:00,
2013-08-10 14:35:00,82.4,62.5,29.89,WNW,282,1.0,3.0,51,0.00,,,0.00,134,Wunderground v.1.15,2013-08-10 18:35:00,
2013-08-10 14:41:00,82.4,63.5,29.89,WNW,302,1.0,2.0,53,0.00,,,0.00,193,Wunderground v.1.15,2013-08-10 18:41:00,
2013-08-10 14:46:00,82.4,63.5,29.89,NW,313,1.0,2.0,53,0.00,,,0.00,172,Wunderground v.1.15,2013-08-10 18:46:00,
2013-08-10 14:52:00,81.8,61.9,29.89,NW,317,1.0,1.0,51,0.00,,,0.00,232,Wunderground v.1.15,2013-08-10 18:52:00,
2013-08-10 14:57:00,81.9,62.0,29.89,WNW,284,1.0,3.0,51,0.00,,,0.00,160,Wunderground v.1.15,2013-08-10 18:57:00,
2013-08-10 15:03:00,81.3,60.9,29.90,NNW,345,1.0,3.0,50,0.00,,,0.00,192,Wunderground v.1.15,2013-08-10 19:03:00,
2013-08-10 15:09:00,80.8,62.6,29.90,WSW,244,1.0,3.0,54,0.00,,,0.00,197,Wunderground v.1.15,2013-08-10 19:09:00,
2013-08-10 15:14:00,80.5,61.3,29.90,WNW,288,1.0,1.0,52,0.00,,,0.00,178,Wunderground v.1.15,2013-08-10 19:14:00,
2013-08-10 15:19:00,80.4,62.8,29.90,WSW,246,1.0,3.0,55,0.00,,,0.00,169,Wunderground v.1.15,2013-08-10 19:19:00,
2013-08-10 15:24:00,80.2,62.0,29.90,NW,305,1.0,1.0,54,0.00,,,0.00,176,Wunderground v.1.15,2013-08-10 19:24:00,
2013-08-10 15:29:00,80.1,60.9,29.90,SW,231,1.0,7.0,52,0.00,,,0.00,225,Wunderground v.1.15,2013-08-10 19:29:00,
2013-08-10 15:35:00,80.1,60.3,29.89,North,355,1.0,1.0,51,0.00,,,0.00,176,Wunderground v.1.15,2013-08-10 19:35:00,
2013-08-10 15:40:00,79.9,60.7,29.90,NW,308,1.0,1.0,52,0.00,,,0.00,193,Wunderground v.1.15,2013-08-10 19:40:00,
2013-08-10 15:45:00,80.0,62.4,29.90,WNW,293,1.0,1.0,55,0.00,,,0.00,211,Wunderground v.1.15,2013-08-10 19:45:00,
2013-08-10 15:50:00,81.2,63.5,29.90,West,279,0.0,0.0,55,0.00,,,0.00,747,Wunderground v.1.15,2013-08-10 19:50:00,
2013-08-10 15:55:00,82.5,64.2,29.90,West,272,1.0,2.0,54,0.00,,,0.00,742,Wunderground v.1.15,2013-08-10 19:55:00,
2013-08-10 16:00:00,82.4,62.5,29.90,NNE,19,1.0,1.0,51,0.00,,,0.00,742,Wunderground v.1.15,2013-08-10 20:00:00,
2013-08-10 16:06:00,81.3,63.1,29.90,NNE,32,1.0,1.0,54,0.00,,,0.00,185,Wunderground v.1.15,2013-08-10 20:06:00,
2013-08-10 16:12:00,81.0,62.8,29.90,SSW,198,0.0,1.0,54,0.00,,,0.00,417,Wunderground v.1.15,2013-08-10 20:12:00,
2013-08-10 16:18:00,81.6,63.3,29.90,SW,223,1.0,1.0,54,0.00,,,0.00,221,Wunderground v.1.15,2013-08-10 20:18:00,
2013-08-10 16:24:00,81.0,62.3,29.91,SW,220,1.0,3.0,53,0.00,,,0.00,223,Wunderground v.1.15,2013-08-10 20:24:00,
2013-08-10 16:30:00,81.5,63.8,29.90,West,276,2.0,2.0,55,0.00,,,0.00,578,Wunderground v.1.15,2013-08-10 20:30:00,
2013-08-10 16:35:00,82.0,64.2,29.91,WNW,303,1.0,2.0,55,0.00,,,0.00,568,Wunderground v.1.15,2013-08-10 20:35:00,
2013-08-10 16:41:00,82.4,61.9,29.90,NW,315,1.0,1.0,50,0.00,,,0.00,548,Wunderground v.1.15,2013-08-10 20:41:00,
2013-08-10 16:47:00,82.5,64.2,29.91,North,355,1.0,5.0,54,0.00,,,0.00,533,Wunderground v.1.15,2013-08-10 20:47:00,
2013-08-10 16:52:00,82.5,62.5,29.90,WSW,254,1.0,1.0,51,0.00,,,0.00,517,Wunderground v.1.15,2013-08-10 20:52:00,
2013-08-10 16:59:00,82.4,61.3,29.91,West,277,2.0,3.0,49,0.00,,,0.00,497,Wunderground v.1.15,2013-08-10 20:59:00,
2013-08-10 17:04:00,82.4,61.3,29.91,West,271,1.0,2.0,49,0.00,,,0.00,476,Wunderground v.1.15,2013-08-10 21:04:00,
2013-08-10 17:09:00,82.0,59.8,29.90,WNW,288,1.0,4.0,47,0.00,,,0.00,459,Wunderground v.1.15,2013-08-10 21:09:00,
2013-08-10 17:15:00,81.6,60.0,29.91,North,5,1.0,1.0,48,0.00,,,0.00,448,Wunderground v.1.15,2013-08-10 21:15:00,
2013-08-10 17:20:00,81.4,61.0,29.91,NNE,23,1.0,1.0,50,0.00,,,0.00,62,Wunderground v.1.15,2013-08-10 21:20:00,
2013-08-10 17:25:00,81.2,60.2,29.91,NW,319,0.0,1.0,49,0.00,,,0.00,367,Wunderground v.1.15,2013-08-10 21:25:00,
2013-08-10 17:30:00,80.5,60.1,29.91,NW,309,1.0,3.0,50,0.00,,,0.00,404,Wunderground v.1.15,2013-08-10 21:30:00,
2013-08-10 17:36:00,80.3,60.0,29.90,North,350,1.0,3.0,50,0.00,,,0.00,367,Wunderground v.1.15,2013-08-10 21:36:00,
2013-08-10 17:41:00,80.4,60.6,29.91,NW,314,1.0,2.0,51,0.00,,,0.00,343,Wunderground v.1.15,2013-08-10 21:41:00,
2013-08-10 17:47:00,80.5,60.1,29.91,WNW,298,2.0,2.0,50,0.00,,,0.00,264,Wunderground v.1.15,2013-08-10 21:47:00,
2013-08-10 17:52:00,80.4,58.9,29.91,NNW,327,1.0,2.0,48,0.00,,,0.00,306,Wunderground v.1.15,2013-08-10 21:52:00,
2013-08-10 17:57:00,80.1,58.6,29.90,SW,236,1.0,3.0,48,0.00,,,0.00,236,Wunderground v.1.15,2013-08-10 21:57:00,
2013-08-10 18:04:00,79.8,58.9,29.91,WNW,288,1.0,3.0,49,0.00,,,0.00,167,Wunderground v.1.15,2013-08-10 22:04:00,
2013-08-10 18:09:00,79.6,58.8,29.91,North,351,1.0,3.0,49,0.00,,,0.00,28,Wunderground v.1.15,2013-08-10 22:09:00,
2013-08-10 18:14:00,79.1,58.9,29.91,WNW,290,0.0,1.0,50,0.00,,,0.00,23,Wunderground v.1.15,2013-08-10 22:14:00,
2013-08-10 18:15:00,78.9,58.7,29.91,NW,321,0.0,3.0,50,0.00,,,0.00,19,Wunderground v.1.15,2013-08-10 22:15:00,
2013-08-10 18:20:00,78.4,59.3,29.91,NW,324,1.0,1.0,52,0.00,,,0.00,32,Wunderground v.1.15,2013-08-10 22:20:00,
2013-08-10 18:26:00,78.0,61.0,29.91,West,263,0.0,1.0,56,0.00,,,0.00,84,Wunderground v.1.15,2013-08-10 22:26:00,
2013-08-10 18:32:00,78.2,60.2,29.91,WNW,290,0.0,0.0,54,0.00,,,0.00,62,Wunderground v.1.15,2013-08-10 22:32:00,
2013-08-10 18:38:00,78.3,62.3,29.92,WSW,254,0.0,1.0,58,0.00,,,0.00,46,Wunderground v.1.15,2013-08-10 22:38:00,
2013-08-10 18:44:00,78.2,61.2,29.92,NW,311,0.0,0.0,56,0.00,,,0.00,35,Wunderground v.1.15,2013-08-10 22:44:00,
2013-08-10 18:49:00,77.9,60.4,29.92,North,9,0.0,0.0,55,0.00,,,0.00,32,Wunderground v.1.15,2013-08-10 22:49:00,
2013-08-10 18:54:00,77.4,61.9,29.92,WNW,296,0.0,2.0,59,0.00,,,0.00,28,Wunderground v.1.15,2013-08-10 22:54:00,
2013-08-10 18:59:00,76.4,62.0,29.92,NNW,337,0.0,2.0,61,0.00,,,0.00,21,Wunderground v.1.15,2013-08-10 22:59:00,
2013-08-10 19:05:00,76.3,60.4,29.92,WNW,301,0.0,0.0,58,0.00,,,0.00,25,Wunderground v.1.15,2013-08-10 23:05:00,
2013-08-10 19:10:00,76.0,60.2,29.93,WNW,303,0.0,0.0,58,0.00,,,0.00,19,Wunderground v.1.15,2013-08-10 23:10:00,
2013-08-10 19:15:00,75.4,60.1,29.93,West,268,0.0,1.0,59,0.00,,,0.00,19,Wunderground v.1.15,2013-08-10 23:15:00,
2013-08-10 19:20:00,75.2,59.4,29.92,SW,235,0.0,0.0,58,0.00,,,0.00,18,Wunderground v.1.15,2013-08-10 23:20:00,
2013-08-10 19:26:00,75.0,58.2,29.93,NW,311,0.0,0.0,56,0.00,,,0.00,16,Wunderground v.1.15,2013-08-10 23:26:00,
2013-08-10 19:31:00,74.8,57.5,29.93,NNE,29,0.0,0.0,55,0.00,,,0.00,12,Wunderground v.1.15,2013-08-10 23:31:00,
2013-08-10 19:37:00,74.4,57.7,29.93,NNE,18,0.0,1.0,56,0.00,,,0.00,9,Wunderground v.1.15,2013-08-10 23:37:00,
2013-08-10 19:42:00,74.1,57.4,29.93,North,355,0.0,0.0,56,0.00,,,0.00,5,Wunderground v.1.15,2013-08-10 23:42:00,
2013-08-10 19:49:00,73.7,57.5,29.94,WNW,298,0.0,0.0,57,0.00,,,0.00,0,Wunderground v.1.15,2013-08-10 23:49:00,
2013-08-10 19:54:00,73.1,59.3,29.94,NNW,330,0.0,0.0,62,0.00,,,0.00,0,Wunderground v.1.15,2013-08-10 23:54:00,
2013-08-10 19:59:00,72.1,58.4,29.94,NNW,330,0.0,0.0,62,0.00,,,0.00,0,Wunderground v.1.15,2013-08-10 23:59:00,
2013-08-10 20:05:00,71.2,58.8,29.94,NNW,330,0.0,0.0,65,0.00,,,0.00,0,Wunderground v.1.15,2013-08-11 00:05:00,
2013-08-10 20:10:00,70.6,61.5,29.94,NNW,330,0.0,0.0,73,0.00,,,0.00,0,Wunderground v.1.15,2013-08-11 00:10:00,
2013-08-10 20:15:00,70.1,59.9,29.94,NNW,330,0.0,0.0,70,0.00,,,0.00,0,Wunderground v.1.15,2013-08-11 00:15:00,
2013-08-10 20:20:00,69.8,58.8,29.95,NNW,330,0.0,0.0,68,0.00,,,0.00,0,Wunderground v.1.15,2013-08-11 00:20:00,
2013-08-10 20:25:00,69.3,60.3,29.95,NNW,330,0.0,0.0,73,0.00,,,0.00,0,Wunderground v.1.15,2013-08-11 00:25:00,
2013-08-10 20:31:00,68.8,59.8,29.96,NNW,330,0.0,0.0,73,0.00,,,0.00,0,Wunderground v.1.15,2013-08-11 00:31:00,
2013-08-10 20:37:00,68.5,59.5,29.96,NNW,330,0.0,0.0,73,0.00,,,0.00,0,Wunderground v.1.15,2013-08-11 00:37:00,
2013-08-10 20:43:00,68.3,59.7,29.96,NNW,330,0.0,0.0,74,0.00,,,0.00,0,Wunderground v.1.15,2013-08-11 00:43:00,
2013-08-10 20:49:00,67.8,58.8,29.97,NNW,330,0.0,0.0,73,0.00,,,0.00,0,Wunderground v.1.15,2013-08-11 00:49:00,
2013-08-10 20:54:00,67.4,59.2,29.97,NNW,330,0.0,0.0,75,0.00,,,0.00,0,Wunderground v.1.15,2013-08-11 00:54:00,
2013-08-10 20:59:00,67.0,59.2,29.97,NNW,330,0.0,0.0,76,0.00,,,0.00,0,Wunderground v.1.15,2013-08-11 00:59:00,
2013-08-10 21:04:00,66.8,58.2,29.97,NNW,330,0.0,0.0,74,0.00,,,0.00,0,Wunderground v.1.15,2013-08-11 01:04:00,
2013-08-10 21:10:00,66.9,59.5,29.98,NNW,330,0.0,0.0,77,0.00,,,0.00,0,Wunderground v.1.15,2013-08-11 01:10:00,
2013-08-10 21:15:00,66.7,59.6,29.98,NNW,330,0.0,0.0,78,0.00,,,0.00,0,Wunderground v.1.15,2013-08-11 01:15:00,
2013-08-10 21:20:00,66.4,58.6,29.98,NNW,330,0.0,0.0,76,0.00,,,0.00,0,Wunderground v.1.15,2013-08-11 01:20:00,
2013-08-10 21:26:00,66.3,59.2,29.98,NNW,330,0.0,0.0,78,0.00,,,0.00,0,Wunderground v.1.15,2013-08-11 01:26:00,
2013-08-10 21:31:00,66.1,59.7,29.98,NNW,330,0.0,0.0,80,0.00,,,0.00,0,Wunderground v.1.15,2013-08-11 01:31:00,
2013-08-10 21:37:00,65.9,58.8,29.98,NNW,330,0.0,0.0,78,0.00,,,0.00,0,Wunderground v.1.15,2013-08-11 01:37:00,
2013-08-10 21:44:00,65.4,58.4,29.99,NNW,330,0.0,0.0,78,0.00,,,0.00,0,Wunderground v.1.15,2013-08-11 01:44:00,
2013-08-10 21:49:00,65.1,58.4,29.99,NNW,330,0.0,0.0,79,0.00,,,0.00,0,Wunderground v.1.15,2013-08-11 01:49:00,
2013-08-10 21:54:00,64.8,58.5,29.99,NNW,330,0.0,0.0,80,0.00,,,0.00,0,Wunderground v.1.15,2013-08-11 01:54:00,
2013-08-10 21:59:00,64.4,58.4,29.99,NNW,330,0.0,0.0,81,0.00,,,0.00,0,Wunderground v.1.15,2013-08-11 01:59:00,
2013-08-10 22:05:00,64.1,58.1,29.99,NNW,330,0.0,0.0,81,0.00,,,0.00,0,Wunderground v.1.15,2013-08-11 02:05:00,
2013-08-10 22:11:00,64.1,58.1,29.99,NNW,330,0.0,0.0,81,0.00,,,0.00,0,Wunderground v.1.15,2013-08-11 02:11:00,
2013-08-10 22:16:00,63.9,58.3,29.99,NNW,330,0.0,0.0,82,0.00,,,0.00,0,Wunderground v.1.15,2013-08-11 02:16:00,
2013-08-10 22:22:00,63.8,58.9,29.99,NNW,330,0.0,0.0,84,0.00,,,0.00,0,Wunderground v.1.15,2013-08-11 02:22:00,
2013-08-10 22:29:00,63.9,59.0,29.99,NNW,330,0.0,0.0,84,0.00,,,0.00,0,Wunderground v.1.15,2013-08-11 02:29:00,
2013-08-10 22:34:00,63.6,58.7,29.99,NNW,330,0.0,0.0,84,0.00,,,0.00,0,Wunderground v.1.15,2013-08-11 02:34:00,
2013-08-10 22:39:00,63.3,58.4,29.99,NNW,330,0.0,0.0,84,0.00,,,0.00,0,Wunderground v.1.15,2013-08-11 02:39:00,
2013-08-10 22:45:00,62.8,58.2,29.99,NNW,330,0.0,0.0,85,0.00,,,0.00,0,Wunderground v.1.15,2013-08-11 02:45:00,
2013-08-10 22:50:00,62.6,58.0,29.99,NNW,330,0.0,0.0,85,0.00,,,0.00,0,Wunderground v.1.15,2013-08-11 02:50:00,
2013-08-10 22:56:00,62.6,58.4,29.99,NNW,330,0.0,0.0,86,0.00,,,0.00,0,Wunderground v.1.15,2013-08-11 02:56:00,
2013-08-10 23:01:00,62.7,58.5,30.00,NNW,330,0.0,0.0,86,0.00,,,0.00,0,Wunderground v.1.15,2013-08-11 03:01:00,
2013-08-10 23:06:00,62.7,58.5,30.00,NNW,330,0.0,0.0,86,0.00,,,0.00,0,Wunderground v.1.15,2013-08-11 03:06:00,
2013-08-10 23:11:00,62.5,58.3,30.00,NNW,330,0.0,0.0,86,0.00,,,0.00,0,Wunderground v.1.15,2013-08-11 03:11:00,
2013-08-10 23:16:00,62.3,58.4,30.00,NNW,330,0.0,0.0,87,0.00,,,0.00,0,Wunderground v.1.15,2013-08-11 03:16:00,
2013-08-10 23:21:00,61.8,58.2,30.01,NNW,330,0.0,0.0,88,0.00,,,0.00,0,Wunderground v.1.15,2013-08-11 03:21:00,
2013-08-10 23:27:00,61.5,58.2,30.01,NNW,330,0.0,0.0,89,0.00,,,0.00,0,Wunderground v.1.15,2013-08-11 03:27:00,
2013-08-10 23:32:00,61.5,58.2,30.01,NNW,330,0.0,0.0,89,0.00,,,0.00,0,Wunderground v.1.15,2013-08-11 03:32:00,
2013-08-10 23:39:00,61.7,58.4,30.01,NNW,330,0.0,0.0,89,0.00,,,0.00,0,Wunderground v.1.15,2013-08-11 03:39:00,
2013-08-10 23:44:00,61.5,57.9,30.01,NNW,330,0.0,0.0,88,0.00,,,0.00,0,Wunderground v.1.15,2013-08-11 03:44:00,
2013-08-10 23:49:00,61.2,57.9,30.01,NNW,330,0.0,0.0,89,0.00,,,0.00,0,Wunderground v.1.15,2013-08-11 03:49:00,
2013-08-10 23:55:00,60.8,57.5,30.01,NNW,330,0.0,0.0,89,0.00,,,0.00,0,Wunderground v.1.15,2013-08-11 03:55:00,